Regional Weather Roundup
Issued by NWS San Diego, CA

Home | Current Version | Previous Version | Text Only | Print | Product List | Glossary On
Versions: 1 2 3 4 5 6 7 8 9 10 11 12 13 14 15 16 17 18 19 20 21 22 23 24 25 26 27 28 29 30 31 32 33 34 35 36 37 38 39 40 41 42 43 44 45 46 47 48 49 50
000
ASUS46 KSGX 242211
RWRSGX

SAN DIEGO HOURLY WEATHER ROUNDUP
NATIONAL WEATHER SERVICE SAN DIEGO CA
300 PM PDT SUN MAY 24 2015

NOTE: "FAIR" INDICATES FEW OR NO CLOUDS BELOW 12,000 FEET WITH NO
SIGNIFICANT WEATHER AND/OR OBSTRUCTIONS TO VISIBILITY.

CAZ042-043-060-061-PZZ750-775-242300-

GREATER SAN DIEGO AREA

CITY           SKY/WX    TMP DP  RH WIND       PRES   REMARKS
LINDBERGH FLD  PTSUNNY   69  48  47 NW10      30.01F
POINT LOMA       N/A     67  49  53 W12         N/A
NATIONAL CITY    N/A     69  55  61 W5        30.00F
CHULA VISTA      N/A     67  54  63 W12       29.93F
IMPERIAL BEACH PTSUNNY   67  52  58 W9        30.00F
BROWN FIELD    PTSUNNY   67  50  54 W8        29.99F
MIRAMAR MCAS   PTSUNNY   68  47  46 VRB6      29.99F
MONTGOMERY FLD CLOUDY    65  49  56 W8        29.99F

$$

NORTH SAN DIEGO COUNTY

CITY           SKY/WX    TMP DP  RH WIND       PRES   REMARKS
CAMP PENDLETON CLOUDY    65  49  56 W8        29.99F
OCEANSIDE AP   CLOUDY    67  50  54 W9G18     29.98F
OCEANSIDE HBR    N/A     64  55  72 W9        30.02F
VISTA            N/A     64  53  67 W5        29.98S
CARLSBAD       CLOUDY    64  50  60 W13       29.99S
DEL MAR          N/A     66  53  63 CALM      30.02S
LA JOLLA SCRIP   N/A     64   8  11 W5        29.97F
FALLBROOK        N/A     66  55  68 W7        29.97F
ESCONDIDO        N/A     64  53  66 W9        30.00S
SAN MARCOS       N/A     63  53  70 SW3       29.98S
POWAY            N/A     65  54  65 CALM      30.00F

$$

EAST SAN DIEGO COUNTY

CITY           SKY/WX    TMP DP  RH WIND       PRES   REMARKS
RAMONA         CLOUDY    62  51  67 NW7       29.99F
SANTEE LAKES     N/A     67  53  59 SW6       29.98F
LA MESA          N/A     65  50  58 W7        29.93F
JAMUL            N/A     65  53  63 CALM      29.97F
DESCANSO N       N/A     52  51  96 CALM      29.90F
MT. LAGUNA OBS   N/A     55  39  54 NE6       29.63S
CAMPO            N/A     63  49  60 SW13G22   29.94F

$$

ORANGE COUNTY AND THE LOS ANGELES BASIN

CITY           SKY/WX    TMP DP  RH WIND       PRES   REMARKS
JOHN WAYNE AP  PTSUNNY   65  52  62 SW7       29.99F
SANTA ANA        N/A     71  57  61 CALM      29.94F
HUNTINGTON BCH   N/A     68  58  72 W8        30.01F
LOS ALAMITOS   PTSUNNY   68  54  60 SW12      29.99F
FULLERTON      CLOUDY    69  51  52 S7        29.98S
LONG BEACH     CLOUDY    68  52  56 S7        29.98F
L.A. AP        MOSUNNY   65  53  65 W14G22    30.00F
L.A. DOWNTOWN  SUNNY     68  53  58 VRB5      29.98S

$$

THE INLAND EMPIRE

CITY           SKY/WX    TMP DP  RH WIND       PRES   REMARKS
CORONA         MOSUNNY   69  52  54 W9G17     29.98F
CHINO          PTSUNNY   70  52  52 SW9       29.99F
ONTARIO        CLOUDY    68  50  52 W10G20    29.97F
SAN BERNARDINO CLOUDY    64  48  55 CALM      29.98F HAZE
RIVERSIDE AP   CLOUDY    68  52  56 W9G16     29.97F
RIV CYN CREST    N/A     65  60  83 NW6         N/A
MORENO VALLEY    N/A     65  57  76 W7        29.95F
MARCH ARB      CLOUDY    65  52  62 NW12      29.97F
HORSETHIEF CYN   N/A     66  50  57 N5        29.94F
PERRIS           N/A     64  54  71 CALM        N/A
MENIFEE          N/A     69  56  62 N3        30.03F
FRENCH VALLEY  CLOUDY    66  52  59 SW7       29.97F
TEMECULA         N/A     66  55  67 S12       29.93F

$$

SAN BERNARDINO AND RIVERSIDE COUNTY MOUNTAINS

CITY           SKY/WX    TMP DP  RH WIND       PRES   REMARKS
BIG BEAR AP    SUNNY     59  32  36 NE6       30.07F
PINE COVE        N/A     56  47  70 W3        30.00F

$$

SOUTHERN DESERT INCLUDING THE COACHELLA VALLEY

CITY           SKY/WX    TMP DP  RH WIND       PRES   REMARKS
PALM SPRINGS   MOSUNNY   85  48  27 NW17G25   29.82F
THOUSAND PALMS   N/A     84  51  31 NW5       29.81F
PALM DESERT      N/A     87  52  29 N9        30.16S
THERMAL        SUNNY     90  46  21 MISG      29.77F
BLYTHE         SUNNY     83  45  26 VRB6      29.82F
IMPERIAL AP    SUNNY     87  44  22 VRB3      29.80F
EL CENTRO NAS  SUNNY     86  42  21 SW6       29.83F
YUMA AZ        SUNNY     84  46  26 SW12      29.83F
MEXICALI       MOSUNNY   84  43  23 N12       29.83F

$$

UPPER DESERT

CITY           SKY/WX    TMP DP  RH WIND       PRES   REMARKS
VICTORVILLE AP SUNNY     79  36  21 NW8       29.91F
HESPERIA         N/A     77  42  27 E2        29.99F
APPLE VALLEY     N/A     79  38  22 NW2       29.95S
PALMDALE       MOSUNNY   78  45  30 W21G26    29.91F
LANCASTER      SUNNY     78  47  33 SW21      29.91F
EDWARDS AFB    MOSUNNY   82  39  22 SW7G20    29.87F
DAGGETT        SUNNY     83  37  19 CALM      29.84F
29 PALMS N     MOSUNNY   83  40  21 VRB3      29.92F
NEEDLES        SUNNY     86  38  18 VRB3      29.79F

$$

REGIONAL REPORTS

CITY           SKY/WX    TMP DP  RH WIND       PRES   REMARKS
SANTA BARBARA  SUNNY     67  50  54 W9        29.98F
SANDBERG       PTSUNNY   69  46  43 SE10      30.03F
LAS VEGAS NV   PTSUNNY   77  45  32 S15G25    29.81F
PHOENIX AZ     PTSUNNY   83  38  20 NW10      29.83F
TIJUANA        CLOUDY    66  46  48 NW12      30.01F
ENSENADA NW      N/A     65  32  29 S9        29.97F

$$

OFFSHORE ISLANDS

CITY           SKY/WX    TMP DP  RH WIND       PRES   REMARKS
CATALINA ARPT  MOSUNNY   58  51  78 SW10      30.01F
SAN NICOLAS IS SUNNY    N/A N/A N/A NW21G29   30.00F

$$

MARINE AND OFFSHORE BUOY REPORTS

STATION/POSITION SKY/WX   TEMP    WIND        PRES    SWELL
                          AIR SEA DIR/SP/G            HT/PER/DIR
                          (F)     (DEG/KT/KT) (MB)    (FT/S/D)
TANNER BANKS               59 61  330/ 14/ 17 1016.6F   3/300/ 8
S CLEMENTE BASIN           60 62  300/ 14/ 16 1015.9F   3/210/17
SAN NICOLAS IS.               58                N/A     2/200/13
SO. S. ROSA ISLA           58 60  320/ 17/ 21 1015.6F   3/ 8
W. S. BARBARA CH           56 54  320/ 19/ 21 1015.3F   3/330/ 8
M. S. BARBARA CH           57 58  270/ 14/ 17 1015.9F
S. MONICA BASIN            60 63  260/  6/  8 1015.9F   3/260/ 8
S PEDRO CHANNEL               64                N/A     2/180/13
DANA POINT                    65                N/A     2/190/13
OCEANSIDE OFFSHR              66                N/A     2/210/18
TORREY PINES OTR              67                N/A     2/220/17
LA JOLLA 1                 63 65  270/  5/  8 1015.9F
MISSION BAY BUOY              66                N/A     2/220/17
SAN DIEGO BAY                 68              1016.3F
POINT LOMA SOUTH              67                N/A     2/220/17

$$



USA.gov is the U.S. government's official web portal to all federal, state and local government web resources and services.